| time (UTC) | temp F | wind direction | speed MPH | gust MPH | rain 1hr in | rain 24hr in | rain mn in | humidity % | barometer mb |
| 20260506090041 | 55 | 0 | 0.0 | 2.0 | 0.00 | 0.00 | 0.00 | 86 | 1019.0 |
| 20260506084530 | 55 | 0 | 0.0 | 1.0 | 0.00 | 0.02 | 0.00 | 86 | 1019.0 |
| 20260506083038 | 55 | 0 | 0.0 | 1.0 | 0.00 | 0.02 | 0.00 | 85 | 1019.1 |
| 20260506081530 | 55 | 0 | 0.0 | 0.0 | 0.00 | 0.02 | 0.00 | 85 | 1019.0 |
| 20260506073031 | 56 | 0 | 0.0 | 1.0 | 0.00 | 0.02 | 0.00 | 85 | 1018.8 |
| 20260506071532 | 56 | 232 | 0.0 | 0.0 | 0.00 | 0.02 | 0.00 | 85 | 1018.6 |
| 20260506061528 | 56 | 0 | 0.0 | 0.0 | 0.00 | 0.06 | 0.02 | 83 | 1018.2 |
| 20260506044534 | 57 | 0 | 0.0 | 0.0 | 0.00 | 0.06 | 0.02 | 80 | 1017.4 |
| 20260506043031 | 57 | 0 | 0.0 | 1.0 | 0.00 | 0.06 | 0.02 | 80 | 1017.2 |
| 20260506041528 | 58 | 0 | 0.0 | 1.0 | 0.00 | 0.06 | 0.02 | 79 | 1016.9 |
| 20260506040041 | 58 | 0 | 0.0 | 1.0 | 0.00 | 0.06 | 0.02 | 78 | 1016.5 |
| 20260506034528 | 59 | 0 | 0.0 | 2.0 | 0.00 | 0.06 | 0.02 | 77 | 1016.4 |
| 20260506033030 | 59 | 0 | 0.0 | 1.0 | 0.00 | 0.06 | 0.02 | 77 | 1016.2 |
| 20260506031532 | 60 | 0 | 0.0 | 0.0 | 0.00 | 0.06 | 0.02 | 77 | 1015.9 |
| 20260506030032 | 60 | 165 | 0.0 | 2.0 | 0.00 | 0.06 | 0.02 | 76 | 1015.8 |
| 20260506024536 | 61 | 0 | 0.0 | 3.0 | 0.00 | 0.07 | 0.02 | 75 | 1015.6 |
| 20260506023030 | 61 | 0 | 0.0 | 1.0 | 0.00 | 0.07 | 0.02 | 75 | 1015.5 |
| 20260506021548 | 62 | 0 | 0.0 | 1.0 | 0.00 | 0.07 | 0.02 | 74 | 1015.4 |
| 20260506020031 | 63 | 0 | 0.0 | 1.0 | 0.00 | 0.07 | 0.02 | 73 | 1015.2 |
| 20260506014529 | 63 | 0 | 0.0 | 3.0 | 0.00 | 0.14 | 0.02 | 73 | 1015.1 |
| 20260506013031 | 64 | 144 | 1.0 | 3.0 | 0.00 | 0.14 | 0.02 | 71 | 1015.1 |
| 20260506011530 | 64 | 0 | 0.0 | 2.0 | 0.00 | 0.14 | 0.02 | 71 | 1015.0 |
| 20260506010036 | 64 | 0 | 1.0 | 4.0 | 0.00 | 0.14 | 0.02 | 71 | 1014.9 |
| 20260506004529 | 64 | 184 | 1.0 | 4.0 | 0.00 | 0.15 | 0.02 | 72 | 1015.0 |
| 20260506003030 | 65 | 152 | 0.0 | 5.0 | 0.00 | 0.15 | 0.02 | 71 | 1014.9 |
| 20260506001531 | 66 | 240 | 0.0 | 6.0 | 0.00 | 0.15 | 0.02 | 71 | 1014.5 |
| 20260506000031 | 66 | 150 | 0.0 | 5.0 | 0.00 | 0.15 | 0.02 | 70 | 1014.6 |
| 20260505234547 | 67 | 177 | 2.0 | 4.0 | 0.00 | 0.16 | 0.02 | 68 | 1014.6 |
| 20260505233033 | 67 | 0 | 0.0 | 1.0 | 0.00 | 0.16 | 0.02 | 67 | 1014.5 |
| 20260505231531 | 68 | 0 | 0.0 | 3.0 | 0.00 | 0.16 | 0.02 | 68 | 1014.6 |
| 20260505230028 | 67 | 245 | 0.0 | 1.0 | 0.00 | 0.16 | 0.02 | 70 | 1014.6 |
| 20260505224532 | 66 | 0 | 0.0 | 2.0 | 0.00 | 0.23 | 0.02 | 71 | 1014.5 |
| 20260505223033 | 66 | 0 | 0.0 | 1.0 | 0.00 | 0.23 | 0.02 | 71 | 1014.7 |
| 20260505221528 | 66 | 333 | 0.0 | 1.0 | 0.00 | 0.23 | 0.02 | 70 | 1015.0 |
| 20260505220029 | 67 | 0 | 0.0 | 1.0 | 0.00 | 0.23 | 0.02 | 70 | 1015.2 |
| 20260505214541 | 66 | 0 | 0.0 | 2.0 | 0.00 | 0.27 | 0.02 | 71 | 1015.3 |
| 20260505213029 | 65 | 61 | 0.0 | 3.0 | 0.00 | 0.27 | 0.02 | 74 | 1015.4 |
| 20260505211540 | 65 | 236 | 0.0 | 2.0 | 0.00 | 0.27 | 0.02 | 70 | 1015.7 |
| 20260505210028 | 64 | 0 | 0.0 | 1.0 | 0.00 | 0.27 | 0.02 | 72 | 1015.7 |
| 20260505204533 | 63 | 0 | 0.0 | 1.0 | 0.00 | 0.27 | 0.02 | 74 | 1015.7 |
| 20260505203048 | 62 | 0 | 0.0 | 2.0 | 0.00 | 0.27 | 0.02 | 77 | 1015.7 |
| 20260505201529 | 61 | 0 | 0.0 | 4.0 | 0.00 | 0.27 | 0.02 | 76 | 1015.8 |
| 20260505200029 | 62 | 0 | 0.0 | 1.0 | 0.00 | 0.27 | 0.02 | 76 | 1015.8 |
| 20260505194530 | 62 | 0 | 0.0 | 1.0 | 0.00 | 0.27 | 0.02 | 78 | 1015.9 |
| 20260505193028 | 61 | 0 | 0.0 | 1.0 | 0.00 | 0.27 | 0.02 | 79 | 1015.8 |
| 20260505191530 | 61 | 0 | 0.0 | 1.0 | 0.00 | 0.27 | 0.02 | 81 | 1015.9 |
| 20260505190034 | 60 | 0 | 0.0 | 1.0 | 0.00 | 0.27 | 0.02 | 82 | 1015.7 |
| 20260505184542 | 60 | 0 | 0.0 | 2.0 | 0.00 | 0.27 | 0.02 | 81 | 1015.8 |
| 20260505183039 | 59 | 0 | 1.0 | 4.0 | 0.00 | 0.27 | 0.02 | 80 | 1015.7 |
| 20260505181529 | 60 | 49 | 0.0 | 2.0 | 0.00 | 0.27 | 0.02 | 80 | 1015.7 |
| 20260505180030 | 60 | 0 | 0.0 | 2.0 | 0.00 | 0.27 | 0.02 | 82 | 1015.6 |
| 20260505174532 | 60 | 0 | 0.0 | 1.0 | 0.00 | 0.27 | 0.02 | 82 | 1015.4 |
| 20260505173031 | 60 | 0 | 0.0 | 0.0 | 0.00 | 0.27 | 0.02 | 83 | 1015.3 |
| 20260505171529 | 59 | 0 | 0.0 | 1.0 | 0.00 | 0.27 | 0.02 | 82 | 1015.3 |
| 20260505170036 | 58 | 0 | 0.0 | 0.0 | 0.00 | 0.27 | 0.02 | 88 | 1015.3 |
| 20260505164533 | 57 | 0 | 0.0 | 0.0 | 0.00 | 0.27 | 0.02 | 91 | 1015.3 |
| 20260505163029 | 56 | 0 | 0.0 | 1.0 | 0.00 | 0.27 | 0.02 | 90 | 1015.2 |
| 20260505161531 | 56 | 0 | 0.0 | 1.0 | 0.00 | 0.27 | 0.02 | 92 | 1015.1 |
| 20260505153030 | 54 | 0 | 0.0 | 1.0 | 0.00 | 0.27 | 0.02 | 93 | 1015.0 |
| 20260505151538 | 54 | 0 | 0.0 | 0.0 | 0.00 | 0.27 | 0.02 | 93 | 1014.9 |
| 20260505124529 | 51 | 0 | 0.0 | 0.0 | 0.00 | 0.27 | 0.02 | 94 | 1014.1 |
| 20260505123030 | 51 | 0 | 0.0 | 0.0 | 0.00 | 0.27 | 0.02 | 94 | 1014.1 |
| 20260505121536 | 51 | 0 | 0.0 | 0.0 | 0.00 | 0.27 | 0.02 | 94 | 1014.1 |
| 20260505120030 | 51 | 0 | 0.0 | 0.0 | 0.00 | 0.27 | 0.02 | 94 | 1014.1 |
| 20260505114529 | 52 | 0 | 0.0 | 0.0 | 0.00 | 0.27 | 0.02 | 94 | 1014.2 |
| 20260505113040 | 52 | 0 | 0.0 | 1.0 | 0.00 | 0.27 | 0.02 | 93 | 1014.3 |
| 20260505111540 | 52 | 0 | 0.0 | 0.0 | 0.00 | 0.27 | 0.02 | 94 | 1014.2 |
| 20260505101534 | 52 | 0 | 0.0 | 0.0 | 0.00 | 0.27 | 0.02 | 93 | 1014.3 |
| 20260505100028 | 52 | 0 | 0.0 | 0.0 | 0.00 | 0.27 | 0.02 | 93 | 1014.4 |
| 20260505094529 | 52 | 0 | 0.0 | 1.0 | 0.00 | 0.27 | 0.02 | 93 | 1014.3 |
| 20260505093033 | 52 | 0 | 0.0 | 0.0 | 0.00 | 0.27 | 0.02 | 93 | 1014.0 |
| 20260505091528 | 52 | 0 | 0.0 | 0.0 | 0.02 | 0.27 | 0.02 | 93 | 1014.3 |